TimeCDT,TemperatureF,Dew PointF,Humidity,Sea Level PressureIn,VisibilityMPH,Wind Direction,Wind SpeedMPH,Gust SpeedMPH,PrecipitationIn,Events,Conditions,WindDirDegrees,DateUTC
12:53 AM,72.0,63.0,73,29.92,10.0,NNW,9.2,20.7,N/A,,Scattered Clouds,330,2013-07-10 05:53:00
1:53 AM,71.1,61.0,70,29.93,10.0,NNW,10.4,23.0,N/A,,Scattered Clouds,340,2013-07-10 06:53:00
2:16 AM,69.8,60.8,73,29.95,10.0,NNW,8.1,-,N/A,,Overcast,330,2013-07-10 07:16:00
2:44 AM,68.0,57.2,68,29.96,10.0,NW,17.3,26.5,N/A,,Scattered Clouds,320,2013-07-10 07:44:00
2:53 AM,68.0,57.0,68,29.95,10.0,NNW,13.8,26.5,N/A,,Partly Cloudy,330,2013-07-10 07:53:00
3:53 AM,66.0,55.9,70,29.97,10.0,NNW,12.7,-,N/A,,Clear,330,2013-07-10 08:53:00
4:53 AM,64.9,55.9,73,30.00,10.0,NW,12.7,-,N/A,,Clear,320,2013-07-10 09:53:00
5:53 AM,64.0,55.9,75,30.02,9.0,NW,8.1,-,N/A,,Clear,320,2013-07-10 10:53:00
6:53 AM,64.0,55.9,75,30.03,8.0,NW,5.8,-,N/A,,Clear,320,2013-07-10 11:53:00
7:53 AM,66.9,55.9,68,30.03,7.0,NNW,8.1,-,N/A,,Clear,330,2013-07-10 12:53:00
8:53 AM,69.1,55.9,63,30.04,7.0,NNW,10.4,-,N/A,,Clear,330,2013-07-10 13:53:00
9:53 AM,73.0,57.0,57,30.04,7.0,NNW,9.2,19.6,N/A,,Clear,330,2013-07-10 14:53:00
10:53 AM,73.9,57.0,55,30.04,6.0,NNW,12.7,-,N/A,,Haze,340,2013-07-10 15:53:00
11:53 AM,75.9,55.0,48,30.03,9.0,NNW,15.0,21.9,N/A,,Clear,330,2013-07-10 16:53:00
12:53 PM,78.1,53.1,42,30.03,10.0,North,11.5,18.4,N/A,,Clear,350,2013-07-10 17:53:00
1:53 PM,79.0,53.1,40,30.02,9.0,NW,10.4,20.7,N/A,,Clear,320,2013-07-10 18:53:00
2:53 PM,80.1,54.0,40,30.02,9.0,North,10.4,21.9,N/A,,Clear,350,2013-07-10 19:53:00
3:53 PM,80.1,53.1,39,30.01,9.0,NW,10.4,-,N/A,,Clear,320,2013-07-10 20:53:00
4:53 PM,82.0,52.0,35,30.01,8.0,WNW,10.4,-,N/A,,Scattered Clouds,300,2013-07-10 21:53:00
5:53 PM,80.1,53.1,39,30.00,7.0,NW,8.1,-,N/A,,Clear,320,2013-07-10 22:53:00
6:53 PM,79.0,55.0,44,30.00,6.0,NW,5.8,-,N/A,,Haze,320,2013-07-10 23:53:00
7:53 PM,77.0,55.9,48,30.00,7.0,NW,5.8,-,N/A,,Clear,320,2013-07-11 00:53:00
8:53 PM,73.9,55.9,53,30.00,6.0,NNW,3.5,-,N/A,,Haze,330,2013-07-11 01:53:00
9:53 PM,72.0,57.0,59,30.01,7.0,Calm,Calm,-,N/A,,Clear,0,2013-07-11 02:53:00
10:53 PM,69.1,57.9,68,30.03,6.0,NW,3.5,-,N/A,,Haze,310,2013-07-11 03:53:00
11:53 PM,68.0,59.0,73,30.04,7.0,NNW,4.6,-,N/A,,Clear,330,2013-07-11 04:53:00